Skip Page Navigation
NASA JPL Caltech
NASA Logo - Jet Propulsion Laboratory + View the NASA Portal
+ Center for Near-Earth Object Studies
JPL Home Earth Solar System Stars & Galaxies Technology
JPL Solar System Dynamics
BODIES ORBITS EPHEMERIDES TOOLS PHYSICAL DATA DISCOVERY FAQ SITE MAP
JPL Small-Body Database Browser
Search: [ help ]  
187718 (2008 EB83)
Classification: Main-belt Asteroid          SPK-ID: 2187718
Ephemeris | Orbit Diagram | Orbital Elements | Mission Design | Physical Parameters | Discovery Circumstances | Close-Approach Data ]

[ show orbit diagram ]
Orbital Elements at Epoch 2459200.5 (2020-Dec-17.0) TDB
Reference: JPL 13 (heliocentric ecliptic J2000)
 Element Value Uncertainty (1-sigma)   Units 
e .0942115457995389 4.7912e-08  
a 3.080338819202777 2.9905e-08 au
q 2.790135337459357 1.4522e-07 au
i 13.60827744009121 8.8812e-06 deg
node 201.8611805463604 1.8603e-05 deg
peri 244.8510146249318 4.9718e-05 deg
M 216.8621383576516 4.8097e-05 deg
tp 2459985.641954050735
(2023-Feb-10.14195405)
0.00026773 TDB
period 1974.677420880515
5.41
2.8757e-05
7.873e-08
d
yr
n .1823082576391008 2.6549e-09 deg/d
Q 3.370542300946197 3.2723e-08 au
  Orbit Determination Parameters
   # obs. used (total)      272  
   data-arc span      6796 days (18.61 yr)  
   first obs. used      2000-10-01  
   last obs. used      2019-05-11  
   planetary ephem.      DE441  
   SB-pert. ephem.      SB441-N16  
   condition code      0  
   norm. resid. RMS      .57248  
   source      ORB  
   producer      Otto Matic  
   solution date      2021-Apr-13 21:56:33  

Additional Information
 Earth MOID = 1.83676 au 
 Jupiter MOID = 1.9669 au 
 T_jup = 3.178 
[ show covariance matrix ]

Ephemeris | Orbit Diagram | Orbital Elements | Mission Design | Physical Parameters | Discovery Circumstances | Close-Approach Data ]

Physical Parameter Table
Parameter Symbol Value Units Sigma Reference Notes
absolute magnitude H 15.31   n/a MPCxxxxx  

187718 (2008 EB83)          Discovered 2008-Mar-08 by LINEAR at Socorro
Reference: 20080520/Numbers.arcLast Updated: 2008-05-22

[ hide close-approach data ]
Close-Approach Data   ...sorted by Date/Time (TDB)
Date/Time (TDB) Time Uncertainty
(days_HH:MM)
Body Nominal Distance (au) Minimum Distance (au) Maximum Distance (au) V-relative (km/s) V-infinity (km/s) JD (TDB) Time Uncertainty (minutes) Semi-major axis (km) Semi-minor axis (km) range-LOV angle (deg) N-sigma BP Orbit Ref. Reference Modified
2189-Mar-09 12:05 00:07 Jupiter 1.99028208206651 1.99028023348232 1.99028393072616 5.37981363680953 5.3001166508522 2520644.003663101 6.98921520611631 679.953097182182 35.1766449531367 83.3636945510267 2088273.23783815 T 13 CATAB v2.0f-lin.ifort 2021-Apr-13 21:56:34 2021-Apr-13 21:56

Alternate Designations
 2008 EB83 = 2003 HS13 
Ephemeris | Orbit Diagram | Orbital Elements | Mission Design | Physical Parameters | Discovery Circumstances | Close-Approach Data ]
ABOUT SSD CREDITS/AWARDS PRIVACY/COPYRIGHT GLOSSARY LINKS
FirstGov 2021-May-07 23:36 UT
(server date/time)  
NASA Home Page
Site Manager:   Ryan S. Park
Webmaster  Alan B. Chamberlin